Orbital elements: 2010 MY112 Earth MOID = 0.1914 AU Epoch 2010 July 23.0 TT = JDT 2455400.5 MPC M 291.51729 (2000.0) P Q n 0.93881591 Peri. 334.59480 +0.46511058 -0.65328313 a 1.0329574 Node 81.96008 +0.87966992 +0.26540050 e 0.2503741 Incl. 37.10918 +0.09926216 +0.70907245 P 1.05 H 21.0 G 0.15 U...
Orbital elements: 2010 MZ112 Earth MOID = 0.2209 AU Epoch 2010 June 13.0 TT = JDT 2455360.5 MPC M 327.88247 (2000.0) P Q n 0.41215949 Peri. 49.68530 +0.92193707 -0.18317671 a 1.7882402 Node 317.40469 -0.10997098 +0.72106875 e 0.7285476 Incl. 30.28206 +0.37140062 +0.66821115 P 2.39 H 19.8 G 0.15 F...
Orbital elements: 2010 MA113 Earth MOID = 0.0815 AU Epoch 2010 June 13.0 TT = JDT 2455360.5 MPC M 342.51134 (2000.0) P Q n 0.29467797 Peri. 27.10801 +0.83660450 +0.23961633 a 2.2365105 Node 309.45834 -0.54162628 +0.49651734 e 0.6009957 Incl. 39.64584 +0.08206021 +0.83429884 P 3.34 H 19.2 G 0.15 F...
Orbital elements: 2010 NH1 Epoch 2010 July 23.0 TT = JDT 2455400.5 MPC M 1.18947 (2000.0) P Q n 0.17013708 Peri. 55.62618 +0.86145214 +0.31899268 a 3.2255472 Node 282.88998 -0.48360651 +0.75277895 e 0.5380002 Incl. 23.91404 +0.15499987 +0.57581900 P 5.79 H 18.4 G 0.15 U 9 [url=http://www.minor...
Orbital elements: 2009 ME10 Epoch 2009 July 8.0 TT = JDT 2455020.5 MPC M 341.13332 (2000.0) P Q n 0.00671371 Peri. 338.69148 +0.80591958 +0.58823692 a 27.8287801 Node 344.70576 -0.49991515 +0.61567433 e 0.1796109 Incl. 14.68425 -0.31714108 +0.52433047 P 147 H 7.5 G 0.15 From 8 observations 2009...
Orbital elements:2008 AO112 PHA, Earth MOID = 0.0451 AU Epoch 2007 Dec. 26.0 TT = JDT 2454460.5 MPC M 354.17310 (2000.0) P Q n 0.44202163 Peri. 346.08635 +0.20946936 -0.97372521 a 1.7067649 Node 91.76602 +0.90546062 +0.15866542 e 0.4820989 Incl. 5.12813 +0.36913908 +0.16335390 P 2.23 H 20.0 G 0....
Has Australia acquired Captain Cook's star atlas? A star atlas which was possibly used by Captain Cook on his first Pacific voyage has been obtained by the National Library of Australia. Read more
ISRO scientist drugged, robbed of crucial data One sip from a soft drink bottle cost him dear. 25-year-old Vikas Arya, a scientist from the Astronautical Society of India (ASI), a part of the Indian Space Research Organisation (ISRO), was drugged and robbed in Delhi while on his way to Haridwar on Tu...
Orbital elements: 2010 NN Earth MOID = 0.0015 AU Epoch 2010 July 23.0 TT = JDT 2455400.5 MPC M 17.62953 (2000.0) P Q n 0.41571216 Peri. 331.26188 -0.27656820 +0.96022857 a 1.7780374 Node 282.66100 -0.87400608 -0.26792632 e 0.4468823 Incl. 2.25294 -0.39952898 -0.07859119 P 2.37 H 28.4 G 0.15 U 7 [ur...
The proton shrinks in size The proton seems to be 0.00000000000003 millimetres smaller than researchers previously thought, according to work published in today's issue of Nature. The difference is so infinitesimal that it might defy belief that anyone, even physicists, would care. But the new...
Constellations are just groupings of stars used to identify a region of the sky. Some of our recognised constellations predate written records, and most originally came from the myths and legends of Mesopotamia, Egypt and Greece. A few of the constellations were charted by astronomers as late as 1...
NASA Preparing for DM-2 Test Preparations are under way for the testing of NASA's next-generation, five-segment solid rocket development motor -- DM-2 -- in September. The test is designed to advance the understanding, safety, technology and capability of solid rocket motors. [url=http://ww...
Waseda-SAT2 is a Japanese satellite which launched in May 2010. It is a student-built spacecraft, which will be operated by Waseda University, and is intended to be used for Earth observation and technology demonstration. It will test the use of extendible paddles to provide attitude control. ...